San Carlos, CA

1:08 PM PST on February 25, 2017 (GMT -0800)
San Carlos

Weather History for KSQL - April, 2013

Change the Weather History Date:

Monday, April 8, 2013

  Actual Average Record
Temperature  
Mean Temperature 55 °F -  
Max Temperature 62 °F 68 °F 92 °F (1989)
Min Temperature 48 °F 43 °F 38 °F (1953)
Degree Days  
Heating Degree Days 10    
Growing Degree Days 5 (Base 50)    
Moisture  
Dew Point 39 °F    
Average Humidity 61    
Maximum Humidity 77    
Minimum Humidity 36    
Precipitation  
Precipitation 0.00 in - - ()
Sea Level Pressure  
Sea Level Pressure 29.94 in    
Wind  
Wind Speed 19 mph (WNW)    
Max Wind Speed 31 mph    
Max Gust Speed 46 mph    
Visibility 10 miles    
Events      
Averages and records for this station are not official NWS values.
T = Trace of Precipitation, MM = Missing Value Source: NWS Daily Summary

Daily Weather History Graph

Daily Weather History Graph

Search for Another Location

Airport or City:

Trip Planner

Search our weather history database for the weather conditions in past years. The results will help you decide how hot, cold, wet, or windy it might be!

Date:

Astronomy

Apr. 08, 2013 Rise Set
Actual Time 6:43 AM PDT 7:38 PM PDT
Civil Twilight 6:17 AM PDT 8:05 PM PDT
Nautical Twilight 5:45 AM PDT 8:36 PM PDT
Astronomical Twilight 5:12 AM PDT 9:09 PM PDT
Moon 5:35 AM PDT (4/8) 6:19 PM PDT (4/8)
Length of Visible Light 13h 48m
Length of Day
12h 54m
Waning Crescent, 3% of the Moon is Illuminated
Apr 8
Waning Crescent
Apr 10
New
Apr 18
First Quarter
Apr 25
Full
May 2
Last Quarter

Hourly Weather History & Observations

Time (PDT) Temp. Dew Point Humidity Pressure Visibility Wind Dir Wind Speed Gust Speed Precip Events Conditions
12:15 AM 53.6 °F 46.4 °F 77% 29.91 in 10.0 mi WNW 15.0 mph 25.3 mph N/A   Overcast
12:30 AM 53.6 °F 46.4 °F 77% 29.91 in 10.0 mi WNW 21.9 mph 31.1 mph N/A   Overcast
12:55 AM 50.0 °F 42.8 °F 76% 29.92 in 10.0 mi WNW 19.6 mph 27.6 mph N/A   Overcast
1:15 AM 50.0 °F 41.0 °F 71% 29.91 in 10.0 mi WNW 21.9 mph 29.9 mph N/A   Overcast
1:30 AM 50.0 °F 41.0 °F 71% 29.90 in 10.0 mi NW 26.5 mph 35.7 mph N/A   Overcast
1:50 AM 50.0 °F 41.0 °F 71% 29.89 in 10.0 mi WNW 21.9 mph 35.7 mph N/A   Overcast
2:15 AM 50.0 °F 41.0 °F 71% 29.86 in 10.0 mi WNW 28.8 mph 40.3 mph N/A   Overcast
2:35 AM 50.0 °F 41.0 °F 71% 29.86 in 8.0 mi NW 31.1 mph 41.4 mph N/A   Overcast
2:50 AM 50.0 °F 41.0 °F 71% 29.85 in 9.0 mi WNW 20.7 mph 38.0 mph N/A   Overcast
3:15 AM 50.0 °F 39.2 °F 66% 29.86 in 9.0 mi NW 26.5 mph 46.0 mph N/A   Overcast
3:35 AM 50.0 °F 39.2 °F 66% 29.86 in 10.0 mi NW 21.9 mph 35.7 mph N/A   Overcast
3:50 AM 50.0 °F 39.2 °F 66% 29.87 in 10.0 mi WNW 25.3 mph 42.6 mph N/A   Overcast
4:15 AM 50.0 °F 39.2 °F 66% 29.88 in 10.0 mi NW 31.1 mph 42.6 mph N/A   Overcast
4:35 AM 50.0 °F 39.2 °F 66% 29.88 in 10.0 mi NW 26.5 mph 35.7 mph N/A   Overcast
4:50 AM 50.0 °F 39.2 °F 66% 29.88 in 10.0 mi NW 27.6 mph 38.0 mph N/A   Overcast
5:15 AM 50.0 °F 39.2 °F 66% 29.88 in 10.0 mi NW 21.9 mph 28.8 mph N/A   Overcast
5:35 AM 50.0 °F 39.2 °F 66% 29.89 in 10.0 mi NW 17.3 mph 28.8 mph N/A   Mostly Cloudy
5:50 AM 50.0 °F 37.4 °F 62% 29.89 in 10.0 mi NW 24.2 mph 29.9 mph N/A   Partly Cloudy
6:10 AM 48.2 °F 37.4 °F 66% 29.89 in 10.0 mi NW 17.3 mph 21.9 mph N/A   Clear
6:35 AM 48.2 °F 37.4 °F 66% 29.90 in 10.0 mi NW 21.9 mph 26.5 mph N/A   Clear
6:47 AM 48.2 °F 37.4 °F 66% 29.91 in 10.0 mi NW 19.6 mph 27.6 mph N/A   Partly Cloudy
6:55 AM 48.2 °F 37.4 °F 66% 29.91 in 10.0 mi NW 12.7 mph 26.5 mph N/A   Clear
7:47 AM 50.0 °F 35.6 °F 58% 29.95 in 10.0 mi NW 12.7 mph 19.6 mph N/A   Partly Cloudy
8:47 AM 51.8 °F 35.6 °F 54% 29.96 in 10.0 mi NW 18.4 mph - N/A   Partly Cloudy
9:53 AM 53.6 °F 35.6 °F 51% 29.96 in 10.0 mi WNW 19.6 mph - N/A   Partly Cloudy
10:48 AM 57.2 °F 35.6 °F 44% 29.97 in 10.0 mi NW 15.0 mph 21.9 mph N/A   Partly Cloudy
11:47 AM 59.0 °F 32.0 °F 36% 29.97 in 10.0 mi NW 11.5 mph - N/A   Partly Cloudy
12:47 PM 60.8 °F 33.8 °F 36% 29.97 in 10.0 mi WNW 18.4 mph 23.0 mph N/A   Partly Cloudy
1:47 PM 62.6 °F 35.6 °F 37% 29.96 in 10.0 mi WNW 18.4 mph 27.6 mph N/A   Partly Cloudy
2:53 PM 62.6 °F 37.4 °F 39% 29.95 in 10.0 mi West 18.4 mph 26.5 mph N/A   Clear
3:59 PM 62.6 °F 39.2 °F 42% 29.94 in 1.0 mi West 20.7 mph 29.9 mph N/A   Clear
4:53 PM 62.6 °F 39.2 °F 42% 29.95 in 10.0 mi West 20.7 mph 29.9 mph N/A   Clear
5:55 PM 59.0 °F 39.2 °F 48% 29.95 in 10.0 mi West 21.9 mph 29.9 mph N/A   Partly Cloudy
6:50 PM 57.2 °F 39.2 °F 51% 29.97 in 10.0 mi WNW 19.6 mph 25.3 mph N/A   Partly Cloudy
7:50 PM 53.6 °F 41.0 °F 62% 29.99 in 10.0 mi West 12.7 mph - N/A   Partly Cloudy
8:50 PM 53.6 °F 41.0 °F 62% 30.00 in 10.0 mi West 11.5 mph - N/A   Clear
9:15 PM 53.6 °F 41.0 °F 62% 30.01 in 10.0 mi WNW 12.7 mph - N/A   Clear
9:35 PM 53.6 °F 41.0 °F 62% 30.01 in 10.0 mi WNW 11.5 mph - N/A   Clear
9:50 PM 53.6 °F 41.0 °F 62% 30.02 in 10.0 mi WNW 9.2 mph - N/A   Clear
10:15 PM 53.6 °F 41.0 °F 62% 30.03 in 10.0 mi WNW 9.2 mph - N/A   Clear
10:35 PM 53.6 °F 41.0 °F 62% 30.03 in 10.0 mi WNW 8.1 mph - N/A   Clear
10:50 PM 53.6 °F 41.0 °F 62% 30.02 in 10.0 mi WNW 5.8 mph - N/A   Clear
11:10 PM 53.6 °F 41.0 °F 62% 30.03 in 10.0 mi WNW 8.1 mph - N/A   Clear
11:35 PM 53.6 °F 41.0 °F 62% 30.03 in 10.0 mi NW 5.8 mph - N/A   Clear
11:55 PM 51.8 °F 41.0 °F 67% 30.04 in 10.0 mi NW 5.8 mph - N/A   Clear